www.pogodaiklimat.ru

ПОГОДА в Мосби, MO

  • Прогноз погоды в Мосби
  • Монитор погоды в Мосби
  • Климат в Мосби

АРХИВ ПОГОДЫ в Мосби

Время (UTC), дата Ветер
(напр.,м/с)
 
Видим.   Явления Облачность Т
(С)
Тd
(С)
f
(%)
Тe
(С)
Тes
(С)
Комфортность

P
(гПа)

Po
(гПа)
Тmin
(С)
Tmax
(С)
R
(мм)
SD
(см)
08:35 22.05 Ю  16 км    ясно  +15.0  +12.0  82  +14  +14      973.4         
08:55 22.05 Ю  16 км    ясно  +15.0  +12.0  82  +14  +14      973.7         
09:15 22.05 Ю  16 км    ясно  +15.0  +12.0  82  +14  +14      974.1         
09:35 22.05 Ю  16 км    ясно  +14.0  +12.0  88  +14  +14      974.4         
09:55 22.05 Ю  16 км    ясно  +14.0  +12.0  88  +14  +14      974.4         
10:15 22.05 Ю  16 км    ясно  +14.0  +12.0  88  +14  +14      975.1         
10:35 22.05 Ю  16 км    ясно  +13.0  +12.0  94  +12  +12      975.1         
10:55 22.05   16 км    ясно  +13.0  +12.0  94  +12  +12      975.4         
11:35 22.05 ЮЗ  16 км    ясно  +15.0  +12.0  82  +15  +16      976.0         
11:55 22.05 ЮЗ  16 км    ясно  +15.0  +11.0  77  +14  +14      976.4         
12:35 22.05 ЮЗ  16 км    ясно  +16.0  +11.0  72  +16  +18      977.0         
12:55 22.05 ЮЗ  4
{7} 
16 км    ясно  +16.0  +10.0  68  +15  +17      977.4         
13:35 22.05   16 км    ясно  +17.0  +9.0  59  +17  +26      978.0         
14:35 22.05 ЮЗ  16 км    ясно  +18.0  +10.0  59  +18  +28      978.7         
14:55 22.05 Ю  16 км    ясно  +19.0  +10.0  56  +19  +25      979.0         
16:15 22.05 ЮЗ  4
{8} 
16 км    ясно  +21.0  +10.0  49  +23  +32  комфорт    979.7         
16:35 22.05 ЮЗ  5
{8} 
16 км    ясно  +21.0  +10.0  49  +23  +29  комфорт    980.0         
17:35 22.05 ЮЗ  7
{8} 
16 км    ясно  +22.0  +11.0  50  +24  +28  комфорт    980.0         
18:15 22.05 Ю  4
{8} 
16 км    ясно  +23.0  +11.0  47  +25  +37  комфорт    979.7         
18:35 22.05 ЮЗ  5
{7} 
16 км    ясно  +23.0  +11.0  47  +25  +33  комфорт    980.0         
18:55 22.05 ЮЗ  4
{9} 
16 км    5/5 1500 м  +23.0  +11.0  47  +25  +30  комфорт    980.0         
20:35 22.05 ЮЗ  3
{4} 
16 км    10/0 2100 м
[средняя] 
+23.0  +13.0  53  +26  +29  жарко    980.7         
21:15 22.05   16 км  слабая морось  8/8 960 м  +20.0  +15.0  73  +22  +24  комфорт    981.0         
22:15 22.05   11 км  слабый дождь  10/10 900 м  +20.0  +16.0  78  +22  +22  комфорт    981.3         
22:35 22.05   16 км    10/10 960 м  +20.0  +16.0  78  +22  +22  комфорт    981.3         
22:55 22.05   16 км    8/8 1410 м  +20.0  +16.0  78  +22  +24  комфорт    981.0         
23:35 22.05   16 км  гроза  8/8 1320 м  +20.0  +16.0  78  +22  +23  комфорт    981.0         
00:15 23.05   16 км    8/5 1260 м
[средняя] 
+19.0  +17.0  88  +20  +20      981.3         
00:35 23.05   16 км    10/8 1800 м
[средняя] 
+18.0  +17.0  94  +18  +18      981.6         
01:55 23.05   16 км    10/10 1500 м  +18.0  +17.0  94  +18  +18      982.3         
02:35 23.05   16 км    5/5 1800 м  +17.0  +16.0  94  +17  +17      983.6         
02:55 23.05   16 км    8/8 1800 м  +17.0  +16.0  94  +17  +17      984.6         
03:15 23.05   16 км    8/8 1800 м  +17.0  +16.0  94  +17  +17      984.9         
03:35 23.05   16 км    5/5 1800 м  +17.0  +15.0  88  +17  +17      984.9         
03:55 23.05   16 км    ясно  +16.0  +15.0  94  +16  +16      985.6         
04:35 23.05   16 км    5/0 2250 м
[средняя] 
+15.0  +15.0  100  +15  +15      986.2         
05:35 23.05   4 км  дымка  5/5 30 м  +14.0  +13.0  94  +14  +14      986.6         
05:55 23.05   16 км    ясно  +13.0  +13.0  100  +12  +12      986.9         
06:15 23.05   16 км    ясно  +13.0  +12.0  94  +12  +12      987.2         
06:55 23.05   16 км    ясно  +13.0  +12.0  94  +12  +12      987.6         
07:15 23.05   2 км  дымка  10/10 30 м  +11.0  +11.0  100  +10  +10      987.2         
07:35 23.05   800 м  туман  10/10 30 м  +12.0  +11.0  94  +11  +11      987.6         
08:35 23.05   8 км  дымка  5/5 30 м  +11.0  +11.0  100  +10  +10      987.9         
08:55 23.05   11 км    5/5 30 м  +11.0  +11.0  100  +10  +10      988.2         
09:15 23.05   6 км  дымка  5/5 30 м  +11.0  +10.0  94  +10  +10      988.2         
09:35 23.05   16 км    5/5 30 м  +10.0  +10.0  100  +9  +9      988.2         
09:55 23.05   16 км    ясно  +10.0  +10.0  100  +9  +9      988.2         
10:15 23.05   16 км    ясно  +10.0  +10.0  100  +9  +9      988.6         

 

Местоположение метеостанции Midwest National Air Center Airport: широта 39.3300 долгота -94.3100 высота над уровнем моря 237 м.

В архиве по умолчанию представлена погода в Мосби за последние 1-2 суток. Обновление информации о фактической погоде в базе происходит ежечасно! Архивные данные за месяц целиком и за предыдущие месяцы Вы можете получить, выбрав интересующий диапазон дат из раскрывающегося списка и нажав кнопку "Ввод!".

Внимание! Архив погоды МЕТАР в базе сайта хранится не более 60 дней. Нет смысла пытаться выбрать более раннюю дату.

Внимание! Время в таблицах - всемирное. Для получения местного времени необходимо прибавить поправку, которая в Мосби равна -6 ч.

Ветер - указаны скорость ветра в м/с и направление, откуда дует ветер: С - северный, СВ - северо-восточный, В - восточный, ЮВ - юго-восточный, Ю - южный, ЮЗ - юго-западный, З - западный, СЗ - северо-западный.
Видимость - горизонтальная дальность видимости в метрах или километрах. При видимости от 1 до 10 км при отсутствии осадков обычно наблюдается дымка, при ухудшении видимости до 1 км и менее - туман. В сухую погоду видимость может ухудшаться дымом, пылью или мглою.
Атмосферные явления - указаны явления, наблюдавшиеся в указанный момент времени.
Облачность - указаны через наклонную черту верхняя и нижняя облачность в баллах и высота нижней границы облаков в метрах. Внимание: облачность, как и прочие метеорологические величины в США измеряются автоматическими метеостанциями. Указанные значения в баллах носят условный характер и показывают процент времени, в течение которого, в среднем, лазерный луч высотомера отражался от облаков обратно.
T - Температура воздуха - температура, измеренная на высоте 2 м над землей.
Td - Температура точки росы - температура, при понижении до которой содержащийся в воздухе водяной пар достигнет насыщения.
f - Относительная влажность воздуха - влажноcть воздуха, измеренная на высоте 2 м над землей.
Te - Эффективная температура - температура, которую ощущает одетый по сезону человек в тени. Характеристика душности погоды. При расчете учитывается влияние влажности воздуха и скорости ветра на теплоощущения человека.
Tes - Эффективная температура на солнце - температура, которую ощущает человек, с поправкой на солнечный нагрев. Характеристика знойности погоды. Зависит от высоты солнца над горизонтом, облачности и скорости ветра. Ночью, в пасмурную погоду, а также при ветре 12 м/с и более поправка равна нулю.
P - Атмосферное давление - приведенное к уровню моря атмосферное давление.
Po - Атмосферное давление - измеренное на уровне метеостанции атмосферное давление.
Tmin - Минимальная температура - минимум температуры воздуха на высоте 2 м над землей.
Tmax - Максимальная температура - максимум температуры воздуха на высоте 2 м над землей.
R - Количество осадков - Количество выпавших осадков за 3 или 6 часов, мм.
SD - Снежный покров - Высота снежного покрова, см.